DateTime,F1_A11,F1_S11,BsB_S11,BsG_S11,BsR_S11,BbsB_S11,BbsG_S11,BbsR_S11,BaB_A11,BaG_A11,BaR_A11,T_S11,U_S11,P_S11,T1_A11
2016-11-16T00:00:00Z,0000388,21000608,,,,,,,,,,25.9,00.0,0619.2,34.6
2016-11-16T00:01:00Z,0000388,21000608,,,,,,,,,,25.9,00.0,0619.2,34.6
2016-11-16T00:02:00Z,0000388,21000608,,,,,,,,,,25.9,00.0,0619.3,34.6
2016-11-16T00:03:00Z,0000388,61000608,,,,,,,,,,25.9,00.0,0619.3,34.6
2016-11-16T00:04:00Z,0000388,41000608,-000.05,0001.82,-000.36,-000.19,0000.77,0000.41,0000.07,0000.14,0000.01,26.0,00.0,0620.2,34.6
2016-11-16T00:05:00Z,0000388,01000608,0002.29,-000.64,0000.60,0000.33,-000.89,0000.19,-000.02,-000.07,0000.07,26.0,00.0,0620.3,34.6
2016-11-16T00:06:00Z,0000388,01000608,0000.94,0000.24,0000.35,0000.61,0000.21,-000.14,-000.07,-000.01,-000.03,26.0,00.0,0620.3,34.6
2016-11-16T00:07:00Z,0000388,01000608,0000.73,0000.36,-000.16,-000.61,-000.65,-000.28,0000.22,0000.11,0000.11,26.0,00.0,0620.4,34.6
2016-11-16T00:08:00Z,0000388,01000608,0001.21,-000.07,0000.72,-000.26,0000.75,0000.15,-000.03,0000.00,-000.01,26.0,00.0,0620.4,34.6
2016-11-16T00:09:00Z,0000388,01000608,0000.31,0000.46,0000.19,0000.46,-000.26,-000.09,-000.06,-000.00,0000.24,26.0,00.0,0620.4,34.6
2016-11-16T00:10:00Z,0000388,01000608,-000.17,-000.78,0000.49,-000.16,-000.19,-000.02,0000.13,-000.10,-000.45,26.0,00.0,0620.4,34.6
2016-11-16T00:11:00Z,0000388,01000608,0000.45,0000.52,-000.36,-000.45,0000.71,-000.50,-000.17,0000.06,0000.24,26.0,00.0,0620.4,34.6
2016-11-16T00:12:00Z,0000388,01000608,-000.27,-000.21,0000.73,-000.07,-000.16,0000.31,0000.08,0000.15,0000.12,26.0,00.0,0620.5,34.6
2016-11-16T00:13:00Z,0000388,01000608,0000.39,0000.95,0000.71,-000.62,0000.06,-000.10,0000.14,-000.01,-000.01,26.0,00.0,0620.4,34.6
2016-11-16T00:14:00Z,0000388,01000608,-000.17,0000.53,0000.21,0000.03,-000.13,-000.12,0000.01,0000.05,-000.03,26.0,00.0,0620.4,34.6
2016-11-16T00:15:00Z,0000388,01000608,0000.21,-000.05,0000.56,-000.23,-000.32,-000.03,-000.05,-000.06,0000.11,26.0,00.0,0620.4,34.6
2016-11-16T00:16:00Z,0000388,01000608,0000.97,-000.22,0000.62,0001.32,-000.03,-000.12,-000.08,-000.00,-000.01,26.0,00.0,0620.4,34.6
2016-11-16T00:17:00Z,0000388,01000608,-001.14,-000.68,0000.18,0000.58,0000.03,0000.34,0000.04,0000.04,-000.35,26.0,00.0,0620.5,34.6
2016-11-16T00:18:00Z,0000380,01000600,0000.78,0000.54,0001.05,0000.56,-000.37,0000.16,0000.08,-000.06,0000.20,26.0,00.0,0620.4,34.6
2016-11-16T00:19:00Z,0000380,01000600,-001.14,0001.07,-000.41,0000.15,0000.46,0000.03,0000.05,-000.20,-000.11,25.9,00.0,0620.5,34.6
2016-11-16T00:20:00Z,0000380,01000600,-000.38,-001.20,0000.64,-000.22,-000.09,0000.03,-000.10,0000.20,0000.29,25.9,00.0,0620.5,34.6
2016-11-16T00:21:00Z,0000380,01000600,0000.62,0000.45,0001.12,0000.22,0000.77,-000.14,0000.12,-000.06,-000.21,26.0,00.0,0620.5,34.6
2016-11-16T00:22:00Z,0000380,01000600,0000.28,0000.06,0000.59,-000.34,-000.32,-000.09,-000.13,0000.08,0000.11,26.0,00.0,0620.6,34.6
2016-11-16T00:23:00Z,0000380,01000600,-000.78,0000.35,0000.63,-000.73,-000.10,-000.04,0000.10,0000.08,0000.26,26.0,00.0,0620.6,34.6
2016-11-16T00:24:00Z,0000380,01000600,-000.52,0000.17,0000.89,-000.24,-000.31,0000.10,0000.15,-000.14,-000.40,25.9,00.0,0620.6,34.6
2016-11-16T00:25:00Z,0000380,01000600,0000.02,0000.40,-000.09,-000.44,0000.06,-000.03,-000.12,0000.18,0000.15,26.0,00.0,0620.6,34.6
2016-11-16T00:26:00Z,0000380,01000600,0000.19,0001.09,0000.89,-000.23,0000.24,0000.34,0000.14,0000.06,0000.16,26.0,00.0,0620.6,34.6
2016-11-16T00:27:00Z,0000380,01000600,0001.37,-000.04,0000.33,-000.13,-000.55,0000.32,-000.01,-000.07,-000.15,26.0,00.0,0620.7,34.6
2016-11-16T00:28:00Z,0000380,01000600,0000.75,0000.69,-000.01,0000.37,0000.20,-000.08,0000.02,0000.06,0000.07,26.0,00.0,0620.7,34.6
2016-11-16T00:29:00Z,0000380,01000600,0000.99,0000.51,0001.33,-000.08,0000.21,0000.62,-000.05,0000.02,0000.11,26.0,00.0,0620.7,34.6
2016-11-16T00:30:00Z,0000380,01000600,0000.52,-000.48,0000.30,0000.20,-000.38,-000.19,-000.04,0000.02,-000.07,26.0,00.0,0620.7,34.6
2016-11-16T00:31:00Z,0000380,01000600,-000.52,0000.68,-000.11,0000.31,0000.27,-000.29,-000.02,0000.12,-000.03,26.0,00.0,0620.7,34.6
2016-11-16T00:32:00Z,0000380,01000600,-001.02,-000.01,0000.42,-000.19,-000.15,-000.00,-000.02,-000.16,-000.13,26.0,00.0,0620.7,34.6
2016-11-16T00:33:00Z,0000380,01000600,-000.36,0000.63,0000.16,0000.53,0000.22,0000.26,0000.05,0000.25,0000.33,26.0,00.0,0620.7,34.6
2016-11-16T00:34:00Z,0000380,01000600,0000.31,-000.16,0000.29,-000.01,-000.53,-000.24,0000.16,-000.24,-000.24,25.9,00.0,0620.8,34.6
2016-11-16T00:35:00Z,0000380,01000600,-001.00,0001.10,0000.13,-000.45,0000.10,-000.28,-000.16,0000.04,0000.10,25.9,00.0,0620.8,34.6
2016-11-16T00:36:00Z,0000380,01000600,-000.14,0000.22,-000.01,-000.87,-000.05,-000.44,0000.08,-000.05,0000.11,25.9,00.0,0620.8,34.6
2016-11-16T00:37:00Z,0000380,01000600,-000.97,0000.52,0001.24,-000.38,-000.05,0000.19,0000.06,0000.15,0000.02,25.9,00.0,0620.8,34.6
2016-11-16T00:38:00Z,0000380,01000600,-000.83,0000.33,-000.04,0000.21,-000.93,0000.04,-000.10,0000.03,-000.07,25.9,00.0,0620.8,34.6
2016-11-16T00:39:00Z,0000380,01000600,-001.07,0000.39,-000.19,0000.97,-000.32,-000.18,0000.17,0000.03,-000.14,25.9,00.0,0620.8,34.6
2016-11-16T00:40:00Z,0000380,01000600,-001.44,0000.10,-000.67,-000.43,-000.43,-000.25,0000.02,-000.01,-000.03,25.9,00.0,0620.8,34.6
2016-11-16T00:41:00Z,0000380,01000600,-000.36,0000.04,-000.23,-000.18,-000.07,-000.21,0000.00,-000.04,0000.18,25.9,00.0,0620.8,34.6
2016-11-16T00:42:00Z,0000380,01000600,-000.52,0000.17,0000.21,0000.12,0000.69,0000.12,0000.11,0000.03,0000.10,25.9,00.0,0620.8,34.6
2016-11-16T00:43:00Z,0000380,01000600,0001.09,-000.38,-000.15,0001.38,-000.03,0000.02,0000.07,0000.13,-000.30,25.9,00.0,0620.8,34.6
2016-11-16T00:44:00Z,0000380,01000600,0001.28,0000.58,-000.21,0000.44,-000.19,-000.46,-000.02,0000.05,0000.20,25.9,00.0,0620.8,34.6
2016-11-16T00:45:00Z,0000380,01000600,-000.50,0000.56,0000.25,0000.02,-001.17,0000.11,-000.09,-000.23,0000.10,25.9,00.0,0620.9,34.6
2016-11-16T00:46:00Z,0000380,01000600,0000.33,0000.25,0000.03,0000.24,-000.30,0000.34,-000.03,-000.01,-000.24,25.9,00.0,0620.9,34.6
2016-11-16T00:47:00Z,0000380,01000600,0000.87,0000.92,0000.09,0000.23,-000.36,-000.16,0000.15,0000.00,0000.31,25.9,00.0,0621.0,34.6
2016-11-16T00:48:00Z,0000380,01000600,0001.36,-000.47,0000.31,-000.51,-000.09,-000.11,-000.05,-000.09,-000.26,25.9,00.0,0621.1,34.6
2016-11-16T00:49:00Z,0000380,01000600,-000.10,0000.76,0000.54,0000.54,0000.40,0001.17,0000.09,0000.15,0000.11,25.8,00.0,0621.1,34.6
2016-11-16T00:50:00Z,0000380,01000600,0000.44,-000.02,0000.87,0000.28,-000.57,-000.07,-000.05,-000.06,0000.05,25.8,00.0,0621.1,34.6
2016-11-16T00:51:00Z,0000380,01000600,0000.06,0000.74,0000.37,0000.02,0000.29,-000.05,-000.05,-000.09,0000.16,25.8,00.0,0621.2,34.6
2016-11-16T00:52:00Z,0000380,01000600,-000.20,0000.60,-000.09,-000.07,0000.26,0000.37,-000.01,0000.02,-000.30,25.8,00.0,0621.2,34.6
2016-11-16T00:53:00Z,0000380,01000600,-000.55,0000.30,0000.89,-000.86,0000.35,0000.17,0000.11,0000.03,0000.16,25.8,00.0,0621.2,34.6
2016-11-16T00:54:00Z,0000380,01000600,0000.17,0000.66,0000.70,0000.12,0000.48,0000.58,-000.15,0000.06,0000.04,25.8,00.0,0621.2,34.7
2016-11-16T00:55:00Z,0000380,01000600,0002.11,0000.84,-000.00,0000.19,-000.29,-000.13,0000.22,0000.26,0000.10,25.8,00.0,0621.2,34.6
2016-11-16T00:56:00Z,0000380,01000600,0000.04,-000.59,0000.76,0000.34,-000.05,0000.24,0000.21,0000.00,-000.13,25.8,00.0,0621.2,34.6
2016-11-16T00:57:00Z,0000380,41000600,,,,,,,,,,25.9,00.0,0621.3,34.6
2016-11-16T00:58:00Z,0000380,61000600,,,,,,,,,,25.7,00.0,0620.3,34.6
2016-11-16T00:59:00Z,0000380,21000600,,,,,,,,,,25.8,00.0,0620.3,34.6
2016-11-16T01:00:00Z,0000380,21000600,,,,,,,,,,25.8,00.0,0620.3,34.6
2016-11-16T01:01:00Z,0000380,21000600,,,,,,,,,,25.7,00.0,0620.3,34.6
2016-11-16T01:02:00Z,0000380,21000600,,,,,,,,,,25.7,00.0,0620.3,34.6
2016-11-16T01:03:00Z,0000380,61000600,,,,,,,,,,25.7,00.0,0620.3,34.6
2016-11-16T01:04:00Z,0000380,41000600,-000.65,0000.50,-000.07,0001.42,0000.43,0000.55,0000.01,-000.21,0000.06,25.8,00.0,0621.3,34.6
2016-11-16T01:05:00Z,0000380,01000600,-000.22,-000.15,0000.11,0000.73,0000.17,0000.19,0000.14,0000.05,-000.07,25.8,00.0,0621.4,34.6
2016-11-16T01:06:00Z,0000380,01000600,-000.53,0000.91,-000.66,0000.83,0000.04,0000.29,-000.07,0000.06,0000.03,25.8,00.0,0621.4,34.6
2016-11-16T01:07:00Z,0000380,01000600,0000.90,0000.62,0000.13,0000.09,0001.07,0000.35,-000.04,-000.03,0000.02,25.8,00.0,0621.4,34.6
2016-11-16T01:08:00Z,0000380,01000600,-000.98,-000.13,0000.11,0000.11,-000.78,-000.51,-000.02,-000.03,-000.04,25.8,00.0,0621.4,34.6
2016-11-16T01:09:00Z,0000380,01000600,-000.59,-000.19,0000.07,0000.95,0000.43,-000.41,0000.14,-000.07,0000.14,25.8,00.0,0621.4,34.6
2016-11-16T01:10:00Z,0000380,01000600,-000.74,-000.10,0000.20,0001.38,-000.84,0000.28,-000.02,0000.09,-000.19,25.7,00.0,0621.4,34.6
2016-11-16T01:11:00Z,0000380,01000600,-001.27,0001.15,0000.24,0000.00,0000.50,0000.06,0000.10,0000.20,0000.11,25.8,00.0,0621.4,34.6
2016-11-16T01:12:00Z,0000380,01000600,-001.07,-000.40,-000.07,-000.36,-000.03,-000.18,0000.07,-000.22,0000.03,25.8,00.0,0621.5,34.6
2016-11-16T01:13:00Z,0000380,01000600,-000.50,0000.07,0000.22,-000.00,0000.01,-000.04,-000.09,0000.04,-000.01,25.7,00.0,0621.5,34.6
2016-11-16T01:14:00Z,0000380,01000600,0000.61,0000.19,-000.11,0000.10,0000.59,-000.55,-000.02,0000.08,0000.05,25.8,00.0,0621.5,34.6
2016-11-16T01:15:00Z,0000380,01000600,-000.60,0000.13,0000.02,0000.21,0000.57,-000.20,0000.04,0000.00,0000.08,25.7,00.0,0621.5,34.6
2016-11-16T01:16:00Z,0000380,01000600,-000.02,-000.09,-000.18,0000.25,0000.05,-000.27,-000.05,0000.25,0000.09,25.7,00.0,0621.5,34.6
2016-11-16T01:17:00Z,0000380,01000600,0000.04,-000.16,-000.01,0000.58,0000.82,0000.43,0000.12,-000.15,-000.10,25.7,00.0,0621.5,34.6
2016-11-16T01:18:00Z,0000380,01000600,-000.42,0001.21,-000.06,0000.37,-000.16,-000.13,0000.07,0000.14,0000.02,25.7,00.0,0621.5,34.6
2016-11-16T01:19:00Z,0000380,01000600,-000.38,0000.45,0000.28,0000.09,-000.02,0000.16,0000.02,-000.04,-000.02,25.7,00.0,0621.5,34.6
2016-11-16T01:20:00Z,0000380,01000600,-000.31,0000.14,-000.06,0000.45,-000.55,-000.33,0000.05,0000.23,-000.08,25.7,00.0,0621.5,34.6
2016-11-16T01:21:00Z,0000380,01000600,-000.45,-000.03,0000.41,0000.53,-000.32,-000.04,0000.02,-000.12,0000.17,25.7,00.0,0621.5,34.6
2016-11-16T01:22:00Z,0000380,01000600,-000.91,0000.03,0001.46,0000.29,0000.26,0000.59,0000.08,0000.00,-000.05,25.7,00.0,0621.5,34.6
2016-11-16T01:23:00Z,0000380,01000600,-001.93,0000.16,-000.42,-000.22,-000.20,0000.05,0000.02,0000.20,0000.07,25.7,00.0,0621.6,34.6
2016-11-16T01:24:00Z,0000380,01000600,-000.19,0001.44,0000.30,0000.05,-000.25,-000.91,0000.05,-000.22,-000.08,25.7,00.0,0621.6,34.6
2016-11-16T01:25:00Z,0000380,01000600,-000.06,-000.07,-000.04,-000.18,-000.47,0000.15,0000.09,0000.01,-000.07,25.7,00.0,0621.6,34.6
2016-11-16T01:26:00Z,0000380,01000600,0001.11,0000.73,0000.44,0000.43,0000.51,0000.70,-000.13,-000.17,0000.09,25.6,00.0,0621.6,34.6
2016-11-16T01:27:00Z,0000380,01000600,0002.14,0000.08,0000.14,-000.24,-000.22,-000.07,-000.01,0000.04,-000.12,25.6,00.0,0621.7,34.6
2016-11-16T01:28:00Z,0000380,01000600,-000.11,0000.34,0000.72,0000.60,-000.40,0000.02,0000.02,0000.14,0000.22,25.6,00.0,0621.6,34.6
2016-11-16T01:29:00Z,0000380,01000600,-001.29,0000.89,0000.18,0000.10,0000.10,-000.65,0000.02,-000.05,-000.21,25.6,00.0,0621.7,34.6
2016-11-16T01:30:00Z,0000380,01000600,-000.57,0001.23,0000.15,0000.04,-000.03,-001.05,-000.09,-000.16,0000.11,25.6,00.0,0621.7,34.6
2016-11-16T01:31:00Z,0000380,01000600,-001.61,-000.35,-000.18,-000.21,0000.02,0000.45,-000.02,-000.04,0000.11,25.6,00.0,0621.7,34.6
2016-11-16T01:32:00Z,0000380,01000600,0000.27,0000.12,-000.14,0000.55,-000.13,-000.72,0000.00,0000.06,-000.10,25.6,00.0,0621.7,34.6
2016-11-16T01:33:00Z,0000380,01000600,-000.98,0000.24,-000.07,0000.15,-000.24,-000.12,0000.06,0000.14,-000.04,25.6,00.0,0621.7,34.6
2016-11-16T01:34:00Z,0000380,01000600,-000.34,0000.51,0000.03,0000.30,-000.02,0000.37,0000.17,-000.08,0000.05,25.6,00.0,0621.8,34.6
2016-11-16T01:35:00Z,0000380,01000600,-000.53,-000.01,0000.06,0000.05,0000.39,-000.39,-000.10,0000.11,0000.03,25.6,00.0,0621.8,34.6
2016-11-16T01:36:00Z,0000380,01000600,-001.41,-000.57,0000.57,0000.44,0000.36,0000.15,-000.05,0000.14,0000.11,25.6,00.0,0621.7,34.6
2016-11-16T01:37:00Z,0000380,01000600,-000.39,-000.36,0000.25,0000.67,-000.09,-000.61,0000.09,-000.01,-000.24,25.5,00.0,0621.7,34.6
2016-11-16T01:38:00Z,0000380,01000600,-001.61,0000.32,0000.28,-000.57,0000.25,0000.07,0000.07,0000.03,0000.29,25.6,00.0,0621.7,34.6
2016-11-16T01:39:00Z,0000380,01000600,-000.48,0001.00,0000.93,0000.29,-000.35,-000.02,0000.12,0000.04,-000.02,25.6,00.0,0621.7,34.6
2016-11-16T01:40:00Z,0000380,01000600,-000.40,-000.33,0000.34,0000.45,0000.35,0000.39,-000.10,-000.00,-000.17,25.5,00.0,0621.7,34.6
2016-11-16T01:41:00Z,0000380,01000600,-001.58,0000.27,0000.12,0000.42,0000.27,-000.31,0000.10,0000.19,0000.05,25.6,00.0,0621.8,34.6
2016-11-16T01:42:00Z,0000380,01000600,-001.18,-000.28,0000.90,0000.03,-000.21,0000.18,0000.10,-000.11,-000.00,25.5,00.0,0621.8,34.6
2016-11-16T01:43:00Z,0000380,01000600,-000.01,0000.77,0001.06,0000.04,0000.17,0000.10,0000.08,0000.09,0000.25,25.5,00.0,0621.9,34.6
2016-11-16T01:44:00Z,0000380,01000600,-000.46,0000.25,-000.36,0000.06,-000.73,-000.24,-000.07,0000.16,-000.26,25.6,00.0,0621.9,34.5
2016-11-16T01:45:00Z,0000380,01000600,0001.25,-000.30,0000.28,0000.47,-000.45,-000.78,0000.09,-000.06,0000.17,25.6,00.0,0621.9,34.6
2016-11-16T01:46:00Z,0000380,01000600,0000.46,0000.04,0000.14,0001.18,0000.21,-000.21,-000.03,-000.16,-000.17,25.6,00.0,0622.0,34.6
2016-11-16T01:47:00Z,0000380,01000600,0000.41,0000.37,0001.06,0000.76,0000.86,0000.16,0000.01,-000.14,0000.22,25.5,00.0,0622.0,34.6
2016-11-16T01:48:00Z,0000380,01000600,-000.12,-000.31,0000.58,-000.45,-000.41,-000.05,-000.13,0000.08,-000.18,25.5,00.0,0622.0,34.6
2016-11-16T01:49:00Z,0000380,01000600,0000.88,-000.40,0000.14,0000.92,0000.38,-000.38,0000.01,0000.07,0000.07,25.5,00.0,0622.0,34.6
2016-11-16T01:50:00Z,0000380,01000600,-000.95,0000.79,0001.29,0000.32,0000.43,0000.15,0000.15,-000.16,0000.17,25.5,00.0,0622.0,34.6
2016-11-16T01:51:00Z,0000380,01000600,-000.28,-000.35,-000.37,0001.26,0000.71,-000.15,-000.05,0000.13,-000.12,25.5,00.0,0622.1,34.6
2016-11-16T01:52:00Z,0000380,01000600,0000.54,0000.56,0000.20,-000.22,-000.35,-000.11,0000.03,-000.03,-000.11,25.5,00.0,0622.1,34.6
2016-11-16T01:53:00Z,0000380,01000600,0000.58,0000.42,0000.08,-000.31,-000.04,0000.02,0000.02,-000.15,0000.01,25.5,00.0,0622.1,34.6
2016-11-16T01:54:00Z,0000380,01000600,-001.20,0000.44,-000.25,-000.34,0000.13,-000.02,-000.04,0000.14,-000.12,25.5,00.0,0622.1,34.6
2016-11-16T01:55:00Z,0000380,01000600,-000.17,0000.51,0000.87,0000.03,0000.12,-000.06,-000.12,-000.04,0000.34,25.5,00.0,0622.2,34.6
2016-11-16T01:56:00Z,0000380,01000600,0001.27,-000.53,-000.05,0000.09,0000.29,0000.66,0000.15,0000.21,-000.21,25.5,00.0,0622.2,34.6
2016-11-16T01:57:00Z,0000380,41000600,,,,,,,,,,25.6,00.0,0622.2,34.6
2016-11-16T01:58:00Z,0000380,61000600,,,,,,,,,,25.4,00.0,0621.2,34.6
2016-11-16T01:59:00Z,0000380,21000600,,,,,,,,,,25.4,00.0,0621.1,34.6
2016-11-16T02:00:00Z,0000380,21000600,,,,,,,,,,25.4,00.0,0621.1,34.6
2016-11-16T02:01:00Z,0000380,21000600,,,,,,,,,,25.4,00.0,0621.1,34.6
2016-11-16T02:02:00Z,0000380,21000600,,,,,,,,,,25.4,00.0,0621.1,34.6
2016-11-16T02:03:00Z,0000380,61000600,,,,,,,,,,25.4,00.0,0621.1,34.6
2016-11-16T02:04:00Z,0000380,41000600,0000.86,0000.03,-000.06,0000.95,0000.64,-000.31,-000.12,0000.22,-000.15,25.5,00.0,0622.0,34.6
2016-11-16T02:05:00Z,0000380,01000600,0000.02,0000.40,0000.03,0000.14,0000.71,-000.15,0000.21,-000.11,-000.08,25.6,00.0,0622.0,34.6
2016-11-16T02:06:00Z,0000380,01000600,-000.41,-000.19,0000.09,0000.52,0000.24,0000.14,0000.01,-000.08,0000.02,25.6,00.0,0622.0,34.6
2016-11-16T02:07:00Z,0000380,01000600,0000.79,0000.40,0000.25,-000.55,0000.82,0000.69,-000.05,0000.03,-000.28,25.6,00.0,0622.0,34.6
2016-11-16T02:08:00Z,0000380,01000600,0000.66,0000.73,0000.36,0000.18,0000.59,0000.22,0000.13,-000.06,0000.21,25.6,00.0,0622.0,34.6
2016-11-16T02:09:00Z,0000380,01000600,-001.68,0000.83,0001.04,0000.30,0000.38,0000.14,-000.21,0000.10,-000.22,25.6,00.0,0622.0,34.6
2016-11-16T02:10:00Z,0000380,01000600,-000.04,0000.04,-000.66,0000.51,-000.16,0000.40,-000.09,-000.08,0000.14,25.6,00.0,0622.0,34.6
2016-11-16T02:11:00Z,0000380,01000600,-001.76,-000.83,0000.38,-000.86,0000.60,0000.27,0000.04,-000.06,0000.13,25.6,00.0,0621.9,34.6
2016-11-16T02:12:00Z,0000380,01000600,0001.51,0000.79,0000.46,0000.69,0000.39,0000.17,0000.14,0000.23,-000.12,25.6,00.0,0621.9,34.6
2016-11-16T02:13:00Z,0000380,01000600,0000.11,0000.68,0000.01,0000.62,0000.09,-000.43,-000.08,-000.11,0000.09,25.6,00.0,0621.9,34.6
2016-11-16T02:14:00Z,0000380,01000600,0001.13,0000.10,0000.46,0000.09,0000.07,0000.07,0000.06,-000.03,0000.03,25.6,00.0,0621.9,34.6
2016-11-16T02:15:00Z,0000380,01000600,-001.15,0000.21,-000.32,0000.60,0000.15,-000.25,-000.01,0000.01,-000.20,25.6,00.0,0621.9,34.6
2016-11-16T02:16:00Z,0000380,01000600,-001.25,0000.08,0000.31,-000.37,0000.53,0000.33,0000.23,0000.10,-000.12,25.5,00.0,0621.8,34.6
2016-11-16T02:17:00Z,0000380,01000600,0001.62,0000.71,-000.08,0000.81,-000.01,-000.54,-000.11,-000.01,0000.22,25.6,00.0,0621.8,34.6
2016-11-16T02:18:00Z,0000380,01000600,-000.03,-000.01,-000.31,0000.09,0000.31,-000.39,0000.05,0000.09,0000.02,25.6,00.0,0621.7,34.6
2016-11-16T02:19:00Z,0000380,01000600,0000.97,0000.20,0000.43,0000.33,0000.12,-000.39,-000.15,-000.09,-000.02,25.6,00.0,0621.6,34.6
2016-11-16T02:20:00Z,0000380,01000600,-000.25,-000.07,0000.94,-001.38,0000.14,0000.35,0000.05,0000.04,-000.04,25.6,00.0,0621.5,34.6
2016-11-16T02:21:00Z,0000380,01000600,0000.35,0001.56,-000.05,-000.49,0000.52,-000.11,0000.19,-000.03,0000.02,25.6,00.0,0621.6,34.6
2016-11-16T02:22:00Z,0000380,01000600,-000.55,0001.27,0000.77,0000.06,0000.13,-000.08,-000.01,0000.01,-000.12,25.6,00.0,0621.6,34.6
2016-11-16T02:23:00Z,0000380,01000600,-000.04,0000.71,0000.60,-000.39,0000.04,0000.27,0000.13,0000.19,0000.11,25.6,00.0,0621.7,34.6
2016-11-16T02:24:00Z,0000380,01000600,-000.13,0000.52,0000.13,0000.34,0001.31,-000.41,-000.25,-000.02,0000.09,25.6,00.0,0621.6,34.6
2016-11-16T02:25:00Z,0000380,01000600,0001.26,-000.86,-000.43,0000.62,-000.14,-000.07,0000.30,-000.07,0000.02,25.6,00.0,0621.6,34.6
2016-11-16T02:26:00Z,0000380,01000600,-000.28,0000.46,-000.12,0000.96,0000.27,0000.11,-000.09,-000.09,-000.41,25.6,00.0,0621.5,34.6
2016-11-16T02:27:00Z,0000380,01000600,0000.04,0000.34,0000.38,0000.68,0001.01,0000.41,-000.25,-000.04,0000.29,25.5,00.0,0621.4,34.6
2016-11-16T02:28:00Z,0000380,01000600,-000.20,0000.32,0000.11,0000.12,-000.05,0000.12,0000.00,-000.08,-000.20,25.6,00.0,0621.3,34.6
2016-11-16T02:29:00Z,0000380,01000600,-000.13,0000.22,-000.14,-000.20,0000.49,-000.16,0000.19,0000.08,0000.44,25.6,00.0,0621.2,34.6
2016-11-16T02:30:00Z,0000380,01000600,-000.28,0000.02,0000.00,0000.03,0000.63,0000.15,-000.11,0000.00,-000.23,25.5,00.0,0621.1,34.6
2016-11-16T02:31:00Z,0000380,01000600,-000.18,-000.51,0000.36,0000.27,0000.79,0000.15,0000.08,-000.06,0000.02,25.6,00.0,0621.0,34.6
2016-11-16T02:32:00Z,0000380,01000600,0000.70,-000.09,-000.18,0000.15,0000.31,-000.74,0000.07,-000.10,-000.14,25.6,00.0,0621.0,34.6
2016-11-16T02:33:00Z,0000380,01000600,0000.92,0000.72,0000.10,-000.44,-000.34,0000.15,-000.04,0000.29,-000.03,25.6,00.0,0621.0,34.6
2016-11-16T02:34:00Z,0000380,01000600,0001.31,0000.72,-000.23,0000.01,0000.34,0000.35,0000.02,-000.29,0000.16,25.6,00.0,0620.9,34.6
2016-11-16T02:35:00Z,0000380,01000600,0000.82,0000.27,0000.76,-000.18,0000.23,0000.10,-000.11,0000.16,-000.18,25.6,00.0,0620.8,34.6
2016-11-16T02:36:00Z,0000380,01000600,0000.02,0001.13,-000.07,-000.18,0000.34,-000.27,0000.03,0000.12,0000.25,25.6,00.0,0620.8,34.6
2016-11-16T02:37:00Z,0000380,01000600,-001.34,0000.13,0000.26,0000.74,0000.54,-000.41,0000.10,-000.01,0000.08,25.6,00.0,0620.8,34.6
2016-11-16T02:38:00Z,0000380,01000600,-000.01,0000.14,0000.45,0000.22,0000.88,0000.00,0000.02,0000.03,-000.02,25.6,00.0,0620.8,34.6
2016-11-16T02:39:00Z,0000380,01000600,-000.66,-000.12,-000.24,0000.60,0001.10,-000.30,0000.18,-000.04,-000.30,25.6,00.0,0620.8,34.6
2016-11-16T02:40:00Z,0000380,01000600,0000.01,0000.05,-000.15,-000.02,0000.44,-000.30,-000.07,0000.10,0000.29,25.6,00.0,0620.8,34.6
2016-11-16T02:41:00Z,0000380,01000600,0000.74,0000.36,0000.67,0000.28,0000.65,-000.46,0000.03,0000.11,0000.04,25.6,00.0,0620.8,34.6
2016-11-16T02:42:00Z,0000380,01000600,-000.38,0000.23,0000.12,0000.79,0000.32,0000.31,0000.15,-000.05,-000.11,25.6,00.0,0620.7,34.6
2016-11-16T02:43:00Z,0000380,01000600,0002.40,0000.66,0000.67,0000.45,0000.25,0000.34,0000.07,0000.12,0000.25,25.6,00.0,0620.7,34.6
2016-11-16T02:44:00Z,0000380,01000600,-000.95,-000.27,-001.27,0000.44,0000.51,-000.53,-000.12,-000.16,-000.21,25.6,00.0,0620.6,34.6
2016-11-16T02:45:00Z,0000380,01000600,0000.35,-000.18,0000.12,-000.57,0000.40,-000.51,0000.10,-000.01,-000.01,25.6,00.0,0620.6,34.6
2016-11-16T02:46:00Z,0000380,01000600,0000.91,0000.45,-000.27,0000.46,0000.76,0000.17,-000.03,0000.11,-000.02,25.6,00.0,0620.6,34.6
2016-11-16T02:47:00Z,0000380,01000600,0001.31,0001.00,0000.49,-000.80,0000.74,0000.15,-000.13,-000.20,0000.01,25.6,00.0,0620.7,34.6
2016-11-16T02:48:00Z,0000380,01000600,0000.44,-000.27,0000.14,0000.46,0000.19,-000.40,0000.01,0000.03,-000.11,25.6,00.0,0620.7,34.6
2016-11-16T02:49:00Z,0000380,01000600,-000.22,0000.46,0000.01,0000.07,0001.01,-000.05,0000.09,-000.09,-000.00,25.6,00.0,0620.9,34.6
2016-11-16T02:50:00Z,0000380,01000600,-000.64,0000.17,0000.70,-000.06,0000.72,0000.31,0000.01,0000.06,0000.19,25.6,00.0,0621.1,34.6
2016-11-16T02:51:00Z,0000380,01000600,0000.16,0000.83,0000.43,0000.25,0000.20,-000.31,0000.02,-000.01,-000.12,25.6,00.0,0621.1,34.6
2016-11-16T02:52:00Z,0000380,01000600,0000.93,0000.19,-000.17,-000.09,0000.32,-000.44,-000.13,0000.06,0000.21,25.6,00.0,0621.0,34.6
2016-11-16T02:53:00Z,0000380,01000600,-000.58,0000.26,-000.07,0000.69,0001.02,-000.67,-000.01,0000.15,-000.04,25.6,00.0,0621.0,34.6
2016-11-16T02:54:00Z,0000380,01000600,0000.51,-000.11,-000.71,0000.44,0000.67,-000.93,-000.03,0000.00,0000.17,25.6,00.0,0620.9,34.6
2016-11-16T02:55:00Z,0000380,01000600,0000.90,0000.57,0000.66,0000.41,0000.51,-000.50,0000.04,-000.08,-000.17,25.6,00.0,0620.9,34.6
2016-11-16T02:56:00Z,0000380,01010600,0000.16,0000.78,0000.50,0000.07,0000.15,0000.82,0000.11,0000.09,0000.01,25.6,00.0,0621.0,34.6
2016-11-16T02:57:00Z,0000380,41000600,,,,,,,,,,25.7,00.0,0620.9,34.6
2016-11-16T02:58:00Z,0000380,61000600,,,,,,,,,,25.5,00.0,0620.0,34.6
2016-11-16T02:59:00Z,0000380,21000600,,,,,,,,,,25.5,00.0,0620.0,34.6
2016-11-16T03:00:00Z,0000380,21000600,,,,,,,,,,25.5,00.0,0620.0,34.6
2016-11-16T03:01:00Z,0000380,21000600,,,,,,,,,,25.5,00.0,0620.0,34.6
2016-11-16T03:02:00Z,0000380,21000600,,,,,,,,,,25.5,00.0,0620.1,34.6
2016-11-16T03:03:00Z,0000380,61000600,,,,,,,,,,25.6,00.0,0620.1,34.6
2016-11-16T03:04:00Z,0000380,41000600,0000.05,0001.30,0000.04,0000.85,0000.29,-000.00,0000.08,0000.09,0000.02,25.6,00.0,0621.1,34.6
2016-11-16T03:05:00Z,0000380,01000600,0001.98,-000.11,0000.20,-000.10,0000.40,-000.22,-000.16,0000.01,-000.02,25.7,00.0,0621.1,34.6
2016-11-16T03:06:00Z,0000380,01000600,0002.30,0001.19,0000.56,0000.60,0000.65,0000.43,0000.04,0000.01,-000.06,25.6,00.0,0621.2,34.6
2016-11-16T03:07:00Z,0000380,01000600,0001.91,0000.20,-000.13,-000.97,0000.18,-000.66,-000.05,-000.01,-000.01,25.6,00.0,0621.1,34.6
2016-11-16T03:08:00Z,0000380,01000600,0000.10,0000.67,-000.49,-000.01,0000.14,-000.30,-000.03,-000.18,-000.09,25.6,00.0,0621.0,34.6
2016-11-16T03:09:00Z,0000380,01000600,0000.75,0001.17,0000.01,0000.96,0000.38,-000.19,0000.08,-000.01,0000.18,25.7,00.0,0620.7,34.6
2016-11-16T03:10:00Z,0000380,01000600,0000.76,-000.27,0000.31,0000.34,0000.25,0000.21,0000.13,-000.07,-000.19,25.6,00.0,0620.7,34.6
2016-11-16T03:11:00Z,0000380,01000600,0000.60,0000.40,-000.46,0000.00,0000.49,-000.12,-000.02,0000.12,-000.10,25.6,00.0,0620.8,34.6